Location: Unspecified
(0.0000°N, 0.0000°E)
Time: 00:42:57
(UTC+00:00)

PCSat - Pass Details

Date: 23 March 2023
Orbit: 783 x 794 km, 67.1° (Epoch: 10 June)

Event Time Altitude Azimuth Distance (km) Brightness Sun altitude
Exits shadow 04:41:41 18° 206° (SSW) 1,871 11.2 -21.3°
Drops below altitude 10° 04:43:23 10° 193° (SSW) 2,357 11.9 -20.8°
Sets 04:46:08 0° 181° (S) 3,287 12.8 -20.2°
